Preview of NWS' New Version of Forecast
This preview is not operational and should not be used for support decisions.

Regional Weather Roundup (RWR)

Issued by National Weather Service (NWS)

                            
000
ASUS43 KDMX 201401
RWRIA 

WEATHER ROUNDUP FOR IOWA
NATIONAL WEATHER SERVICE DES MOINES IA
800 AM CST WED FEB 20 2019

NOTE: "FAIR" INDICATES FEW OR NO CLOUDS BELOW 12,000 FEET WITH NO
SIGNIFICANT WEATHER AND/OR OBSTRUCTIONS TO VISIBILITY.

* - THESE STATIONS ARE NOT NWS STATIONS...THUS NOT UNDER NWS
QUALITY CONTROL.  THEY ALSO DO NOT REPORT WEATHER SUCH 
AS PRECIPITATION OR FOG.  

IAZ001>003-012>014-020>022-031>034-043>046-201500-
   NORTHWEST IOWA
  
CITY           SKY/WX    TMP DP  RH WIND       PRES   REMARKS
CARROLL *      CLOUDY    25  25 100 SE7       29.69F FOG     WCI  17  
CHEROKEE *     LGT SNOW  23  23  99 E3        29.69F                  
DENISON *      MIX PCPN  25  25 100 CALM      29.70F                  
LE MARS *      LGT SNOW  21  21 100 SE9       29.68S WCI  11          
ORANGE CITY *  LGT SNOW  21  21 100 E6        29.66F WCI  14          
SHELDON *      LGT SNOW  21  21 100 E10       29.65F WCI  10          
SIOUX CITY     LGT SNOW  20  19  96 SE6       29.69F VSB 1   WCI  12  
SPENCER        LGT SNOW  23  20  88 E8        29.69F FOG     WCI  14  
STORM LAKE *   LGT SNOW  21  21 100 SE6       29.67F WCI  14          
$$
 
IAZ055>058-069>071-079>083-090>094-201500-
   SOUTHWEST IOWA
  
CITY           SKY/WX    TMP DP  RH WIND       PRES   REMARKS
ATLANTIC *     MIX PCPN  27  27 100 S5        29.70F WCI  21          
AUDUBON *      LGT SNOW  27  23  86 CALM      29.69F                  
CLARINDA *     LGT SNOW  27  27 100 S5        29.74F WCI  21          
COUNCIL BLFS * LGT SNOW  25  25 100 SE5       29.68F WCI  19          
CRESTON *      MIX PCPN  27  27 100 S8        29.72S WCI  18          
HARLAN  *      LGT SNOW  25  25 100 S6        29.69F WCI  18          
LAMONI         CLOUDY    28  25  88 S7        29.71F FOG     WCI  21  
RED OAK *      LGT SNOW  27  27 100 S5        29.71F WCI  21          
SHENANDOAH *   LGT SNOW  27  27 100 S5        29.73S WCI  21          
$$
 
IAZ047>049-059>061-072>074-084-201500-
   CENTRAL IOWA
  
CITY           SKY/WX    TMP DP  RH WIND       PRES   REMARKS
AMES           LGT SNOW  26  26 100 SE6       29.74F FOG     WCI  19  
ANKENY *       CLOUDY    27  27 100 SE6       29.75F FOG     WCI  20  
BOONE *        CLOUDY    27  27 100 SE9       29.71F FOG     WCI  17  
CHARITON *     LGT SNOW  28  28 100 S7        29.72F WCI  21          
DES MOINES     FRZ DRZL  27  26  96 SE6       29.74F VSB 1   WCI  20  
GRINNELL*      LGT SNOW  28  27  96 SE9       29.76S VSB 3/4 WCI  19  
KNOXVILLE *    FOG       28  28 100 SE6       29.73F VSB 1   WCI  22  
MARSHALLTOWN   SNOW      27  26  96 SE14      29.74F VSB 1/2 WCI  16  
NEWTON *       FOG       27  27 100 SE10      29.74F VSB 1   WCI  17  
PELLA *        LGT SNOW  28  27  93 SE8       29.75F WCI  20          
PERRY *        MIX PCPN  27  27 100 CALM      29.72F                  
$$
 
IAZ004>006-015-016-023>025-035-036-201500-
   NORTH CENTRAL IOWA
  
CITY           SKY/WX    TMP DP  RH WIND       PRES   REMARKS
ALGONA *       LGT SNOW  25  25 100 SE7       29.71F WCI  17          
CLARION *      FOG       25  25 100 SE13      29.74F VSB 1   WCI  13  
ESTHERVILLE    LGT SNOW  21  20  96 E9        29.70F VSB 3/4 WCI  11  
FORT DODGE *   LGT SNOW  25  24  96 E7        29.72F FOG     WCI  17  
MASON CITY     SNOW      24  24 100 S13       29.77R VSB 1/2 WCI  12  
FOREST CITY *  SNOW      27  27 100 S8        29.76R VSB 1/2 WCI  18  
IOWA FALLS *   LGT SNOW  27  25  95 SE8       29.75S VSB 3/4 WCI  18  
$$

IAZ007>011-017>019-026>030-037>042-050>054-066-201500-
   NORTHEAST IOWA
  
CITY           SKY/WX    TMP DP  RH WIND       PRES   REMARKS
CEDAR RAPIDS   SNOW      27  27 100 SE14      29.77R VSB 1/2 WCI  16  
CHARLES CITY * SNOW      25  23  93 E16       29.74F VSB 1/4 WCI  12  
CLINTON *      LGT SNOW  30  29  96 E25       29.81F FOG     WCI  16  
DECORAH *      SNOW      25  25 100 E16       29.76F VSB 1/2 WCI  12  
DUBUQUE        FRZ DRZL  27  24  89 E23G31    29.78F VSB 1   WCI  12  
OELWEIN *      FOG       25  25 100 E23       29.74F VSB 1/4 WCI  10  
WATERLOO       SNOW      27  24  89 SE15      29.76R VSB 1/2 WCI  15  
$$
 
IAZ064-065-067-068-078-201500-
   EAST CENTRAL IOWA
  
CITY           SKY/WX    TMP DP  RH WIND       PRES   REMARKS
DAVENPORT      FRZ RAIN  30  27  88 E20       29.81F FOG     WCI  17  
IOWA CITY      LGT SNOW  30  28  92 SE9       29.81S VSB 3/4 WCI  22  
MT. PLEASANT * DRIZZLE   32  32 100 SE8       29.78F WCI  25          
MUSCATINE *    CLOUDY    32  30  93 SE8       29.81S FOG     WCI  25  
QUAD CITIES    FRZ RAIN  31  29  92 E18       29.80F FOG     WCI  19  
$$
 
IAZ062-063-075>077-085>089-095>099-201500-
   SOUTHEAST IOWA
  
CITY           SKY/WX    TMP DP  RH WIND       PRES   REMARKS
BURLINGTON     CLOUDY    32  30  92 SE8       29.78F FOG     WCI  25  
FAIRFIELD *    CLOUDY    30  30 100 SE10      29.76S FOG     WCI  21  
FORT MADISON * CLOUDY    32  32 100 SE7       29.79S FOG     WCI  26  
KEOKUK *       FOG       32  32 100 SE7       29.78S VSB 1   WCI  26  
OSKALOOSA *    LGT SNOW  28  28  98 SE12      29.76S VSB 1   WCI  18  
OTTUMWA        LGT SNOW  29  28  96 SE10      29.75S VSB 3/4 WCI  20  
WASHINGTON *   MIX PCPN  30  30 100 SE13      29.78F VSB 1   WCI  20  
$$

ABBREVIATIONS USED IN REMARKS
   TC - TEMPERATURES IN CELSIUS
  WCI - WIND CHILL INDEX
   HX - HEAT INDEX
  VSB - VISIBILITY  
$$